Date String (YYYY-MM-DD hh:mm:ss) UTC,Instrument flags,Ambient pressure (hPa),Sample flow (lpm),Bypass flow (lpm),Sample temperature (°C),Ambient temperature (°C),ASC tube jacket temperature (°C),LED temperature (°C),Box temperature (°C),Sample RH (%),Span deviation,Mass concentration (μg/m³),Mass concentration (μg/m³),Mass concentration (μg/m³)
DateTimeUTC,F1_M11,P_M11,Q1_M11,Q2_M11,T1_M11,T2_M11,T3_M11,T4_M11,T5_M11,U1_M11,ZSPAN_M11,X2_M11,X0_M11,X1_M11
2023-05-25 07:00:00,,0829.0,5.00,0.00,29.2,27.4,00.0,37.7,30.8,22.0,0003.2,0006.48,0010.01,0006.13
2023-05-25 07:01:00,,0829.0,5.00,0.00,29.2,27.4,00.0,37.7,30.8,22.1,0003.3,0006.38,0009.87,0006.03
2023-05-25 07:02:00,,0829.0,5.00,0.00,29.2,27.4,00.0,37.7,30.8,22.2,0003.4,0006.30,0009.80,0005.97
2023-05-25 07:03:00,,0829.0,5.00,0.00,29.2,27.4,00.0,37.6,30.7,22.3,0003.4,0006.20,0009.65,0005.90
2023-05-25 07:04:00,,0829.0,5.00,0.00,29.2,27.3,00.0,37.6,30.7,22.4,0003.4,0006.12,0009.53,0005.84
2023-05-25 07:05:00,,0829.0,5.00,0.00,29.2,27.3,00.0,37.6,30.7,22.4,0003.5,0006.02,0009.37,0005.76
2023-05-25 07:06:00,,0828.9,5.02,0.00,29.1,27.3,00.0,37.6,30.7,22.4,0003.7,0005.94,0009.17,0005.69
2023-05-25 07:07:00,,0828.9,5.00,0.00,29.1,27.3,00.0,37.6,30.7,22.6,0003.7,0005.87,0009.08,0005.63
2023-05-25 07:08:00,,0828.9,4.99,0.00,29.1,27.2,00.0,37.6,30.7,22.6,0003.8,0005.82,0009.07,0005.58
2023-05-25 07:09:00,,0828.9,4.99,0.00,29.1,27.2,00.0,37.6,30.7,22.2,0003.8,0005.80,0009.37,0005.55
2023-05-25 07:10:00,,0829.0,5.01,0.00,29.1,27.3,00.0,37.6,30.7,21.9,0003.9,0005.70,0009.22,0005.46
2023-05-25 07:11:00,,0829.0,5.00,0.00,29.1,27.3,00.0,37.6,30.7,21.8,0003.9,0005.64,0009.17,0005.37
2023-05-25 07:12:00,,0829.0,5.00,0.00,29.1,27.3,00.0,37.6,30.7,21.9,0003.7,0005.58,0009.10,0005.32
2023-05-25 07:13:00,,0829.0,5.01,0.00,29.1,27.3,00.0,37.6,30.7,22.0,0003.5,0005.52,0009.03,0005.25
2023-05-25 07:14:00,,0829.0,5.01,0.00,29.1,27.3,00.0,37.5,30.7,22.2,0003.6,0005.47,0008.94,0005.19
2023-05-25 07:15:00,,0829.0,5.00,0.00,29.1,27.3,00.0,37.5,30.7,22.3,0003.5,0005.44,0008.93,0005.14
2023-05-25 07:16:00,,0829.0,4.99,0.00,29.1,27.3,00.0,37.5,30.7,22.2,0003.5,0005.40,0008.92,0005.09
2023-05-25 07:17:00,,0829.0,4.99,0.00,29.1,27.3,00.0,37.5,30.7,21.8,0003.7,0005.35,0009.00,0005.04
2023-05-25 07:18:00,,0829.0,5.00,0.00,29.1,27.2,00.0,37.5,30.6,21.9,0003.7,0005.30,0009.24,0004.99
2023-05-25 07:19:00,,0829.0,5.00,0.00,29.1,27.2,00.0,37.5,30.6,21.8,0003.7,0005.24,0009.12,0004.94
2023-05-25 07:20:00,,0829.0,5.00,0.00,29.0,27.2,00.0,37.5,30.6,21.7,0003.8,0005.18,0008.70,0004.89
2023-05-25 07:21:00,,0828.9,5.00,0.00,29.0,27.1,00.0,37.5,30.5,21.9,0003.6,0005.19,0008.74,0004.88
2023-05-25 07:22:00,,0828.8,5.00,0.00,29.0,27.2,00.0,37.5,30.6,22.2,0003.5,0005.16,0008.70,0004.87
2023-05-25 07:23:00,,0828.8,5.01,0.00,29.0,27.2,00.0,37.5,30.6,22.0,0003.5,0005.18,0008.75,0004.86
2023-05-25 07:24:00,,0828.8,5.02,0.00,29.0,27.2,00.0,37.5,30.6,22.0,0003.6,0005.18,0008.97,0004.86
2023-05-25 07:25:00,,0828.8,5.01,0.00,29.0,27.3,00.0,37.5,30.6,22.0,0003.5,0005.17,0009.06,0004.84
2023-05-25 07:26:00,,0828.8,5.00,0.00,29.0,27.3,00.0,37.5,30.6,22.0,0003.5,0005.17,0009.04,0004.83
2023-05-25 07:27:00,,0828.8,5.00,0.00,29.0,27.3,00.0,37.5,30.6,21.9,0003.6,0005.19,0009.06,0004.84
2023-05-25 07:28:00,,0828.7,5.00,0.00,29.1,27.4,00.0,37.5,30.6,21.9,0003.5,0005.22,0009.06,0004.87
2023-05-25 07:29:00,,0828.8,5.00,0.00,29.1,27.4,00.0,37.5,30.7,21.8,0003.6,0005.26,0008.72,0004.89
2023-05-25 07:30:00,,0828.8,5.00,0.00,29.1,27.4,00.0,37.5,30.7,22.1,0003.5,0005.28,0008.74,0004.92
2023-05-25 07:31:00,,0828.8,4.99,0.00,29.1,27.4,00.0,37.5,30.7,22.0,0003.3,0005.30,0008.75,0004.94
2023-05-25 07:32:00,,0828.8,5.00,0.00,29.1,27.5,00.0,37.5,30.7,21.8,0003.5,0005.31,0008.75,0004.96
2023-05-25 07:33:00,,0828.8,5.00,0.00,29.1,27.5,00.0,37.5,30.7,21.9,0003.9,0005.34,0008.77,0004.98
2023-05-25 07:34:00,,0828.8,5.01,0.00,29.1,27.5,00.0,37.5,30.7,22.0,0004.1,0005.33,0008.71,0004.98
2023-05-25 07:35:00,,0828.8,5.01,0.00,29.1,27.5,00.0,37.5,30.7,21.9,0004.1,0005.36,0008.67,0005.00
2023-05-25 07:36:00,,0828.8,5.00,0.00,29.1,27.5,00.0,37.5,30.7,21.6,0004.0,0005.38,0008.52,0005.04
2023-05-25 07:37:00,,0828.7,5.00,0.00,29.1,27.5,00.0,37.5,30.7,21.7,0003.8,0005.37,0008.49,0005.05
2023-05-25 07:38:00,,0828.8,5.00,0.00,29.1,27.5,00.0,37.5,30.7,21.7,0003.7,0005.40,0008.56,0005.06
2023-05-25 07:39:00,,0828.7,5.00,0.00,29.1,27.5,00.0,37.5,30.7,21.5,0003.7,0005.39,0008.51,0005.06
2023-05-25 07:40:00,,0828.7,5.00,0.00,29.1,27.5,00.0,37.5,30.7,21.4,0003.8,0005.41,0008.56,0005.09
2023-05-25 07:41:00,,0828.8,5.00,0.00,29.1,27.5,00.0,37.5,30.7,21.4,0003.8,0005.45,0008.76,0005.11
2023-05-25 07:42:00,,0828.8,5.01,0.00,29.2,27.5,00.0,37.5,30.7,22.9,0003.9,0005.52,0008.90,0005.16
2023-05-25 07:43:00,,0828.8,5.00,0.00,29.2,27.6,00.0,37.5,30.7,24.3,0003.7,0005.65,0009.06,0005.29
2023-05-25 07:44:00,,0828.8,5.00,0.00,29.2,27.6,00.0,37.5,30.7,22.7,0003.5,0005.72,0009.16,0005.36
2023-05-25 07:45:00,,0828.8,4.99,0.00,29.2,27.6,00.0,37.5,30.7,22.2,0003.3,0005.80,0009.27,0005.43
2023-05-25 07:46:00,,0828.8,5.00,0.00,29.2,27.6,00.0,37.5,30.8,21.7,0003.5,0005.86,0009.28,0005.51
2023-05-25 07:47:00,,0828.7,5.00,0.00,29.2,27.6,00.0,37.5,30.8,22.6,0003.5,0005.94,0009.38,0005.57
2023-05-25 07:48:00,,0828.8,5.01,0.00,29.2,27.6,00.0,37.5,30.8,23.4,0003.6,0006.03,0009.96,0005.67
2023-05-25 07:49:00,,0828.8,5.00,0.00,29.2,27.6,00.0,37.5,30.8,23.8,0003.8,0006.16,0010.18,0005.81
2023-05-25 07:50:00,,0828.8,5.01,0.00,29.2,27.6,00.0,37.5,30.8,23.9,0004.0,0006.35,0010.47,0005.97
2023-05-25 07:51:00,,0828.8,5.00,0.00,29.2,27.6,00.0,37.5,30.8,23.1,0004.0,0006.41,0010.51,0006.05
2023-05-25 07:52:00,,0828.8,4.99,0.00,29.2,27.6,00.0,37.5,30.8,22.9,0003.9,0006.50,0010.48,0006.13
2023-05-25 07:53:00,,0828.7,5.00,0.00,29.2,27.6,00.0,37.5,30.8,22.5,0003.8,0006.51,0010.50,0006.17
2023-05-25 07:54:00,,0828.8,5.00,0.00,29.2,27.7,00.0,37.6,30.8,22.5,0003.8,0006.47,0010.50,0006.13
2023-05-25 07:55:00,,0828.8,4.99,0.00,29.2,27.7,00.0,37.6,30.8,22.5,0003.8,0006.49,0010.57,0006.15
2023-05-25 07:56:00,,0828.8,5.00,0.00,29.3,27.7,00.0,37.6,30.8,22.9,0003.9,0006.50,0010.55,0006.18
2023-05-25 07:57:00,,0828.8,5.00,0.00,29.3,27.7,00.0,37.6,30.8,23.2,0003.9,0006.52,0010.56,0006.19
2023-05-25 07:58:00,,0828.8,5.00,0.00,29.3,27.7,00.0,37.6,30.9,23.7,0004.0,0006.57,0010.59,0006.25
2023-05-25 07:59:00,,0828.9,5.00,0.00,29.3,27.7,00.0,37.6,30.9,23.5,0004.0,0006.58,0010.19,0006.26
